Ottumwa, IA

8:12 PM CDT on July 23, 2017 (GMT -0500)
Ottumwa Industrial

Weather History for KOTM - October, 2014

Change the Weather History Date:

Thursday, October 16, 2014

  Actual Average Record
Temperature  
Mean Temperature 56 °F 52 °F  
Max Temperature 73 °F 63 °F 89 °F (1935)
Min Temperature 39 °F 41 °F 27 °F (2002)
Degree Days  
Heating Degree Days 9 13  
Month to date heating degree days 197 168  
Since 1 July heating degree days 331 289  
Cooling Degree Days 0 0  
Month to date cooling degree days 0 9  
Year to date cooling degree days 800 936  
Growing Degree Days 6 (Base 50)    
Moisture  
Dew Point 43 °F    
Average Humidity 63    
Maximum Humidity 92    
Minimum Humidity 33    
Precipitation  
Precipitation 0.00 in 0.09 in 1.40 in (1913)
Month to date precipitation 3.51 1.48  
Year to date precipitation 38.96 31.97  
Sea Level Pressure  
Sea Level Pressure 29.78 in    
Wind  
Wind Speed 7 mph (SW)    
Max Wind Speed 15 mph    
Max Gust Speed 21 mph    
Visibility 10 miles    
Events      
T = Trace of Precipitation, MM = Missing Value Source: NWS Daily Summary

Daily Weather History Graph

Daily Weather History Graph

Search for Another Location

Airport or City:

Trip Planner

Search our weather history database for the weather conditions in past years. The results will help you decide how hot, cold, wet, or windy it might be!

Date:

Astronomy

Oct. 16, 2014 Rise Set
Actual Time 7:22 AM CDT 6:27 PM CDT
Civil Twilight 6:54 AM CDT 6:55 PM CDT
Nautical Twilight 6:22 AM CDT 7:27 PM CDT
Astronomical Twilight 5:50 AM CDT 7:59 PM CDT
Moon 12:29 AM CDT (10/16) 2:42 PM CDT (10/16)
Length of Visible Light 12h 00m
Length of Day
11h 05m
Last Quarter, 41% of the Moon is Illuminated
Oct 16
Last Quarter
Oct 23
New
Oct 30
First Quarter
Nov 6
Full
Nov 14
Last Quarter

Hourly Weather History & Observations

Time (CDT) Temp. Windchill Dew Point Humidity Pressure Visibility Wind Dir Wind Speed Gust Speed Precip Events Conditions
12:53 AM 42.1 °F 39.2 °F 39.0 °F 89% 29.88 in 10.0 mi WSW 4.6 mph - N/A   Clear
1:53 AM 42.1 °F 40.2 °F 39.9 °F 92% 29.88 in 10.0 mi WSW 3.5 mph - N/A   Clear
2:53 AM 39.0 °F 36.8 °F 37.0 °F 93% 29.88 in 10.0 mi West 3.5 mph - N/A   Clear
3:53 AM 39.2 °F - 37.4 °F 93% 29.86 in 10.0 mi Calm Calm - N/A   Clear
4:53 AM 39.9 °F - 37.9 °F 93% 29.87 in 10.0 mi Calm Calm - N/A   Clear
5:53 AM 41.0 °F 38.0 °F 37.9 °F 89% 29.87 in 10.0 mi South 4.6 mph - N/A   Clear
6:53 AM 42.1 °F 38.4 °F 39.9 °F 92% 29.87 in 10.0 mi South 5.8 mph - N/A   Clear
7:53 AM 43.0 °F 41.3 °F 39.9 °F 89% 29.86 in 10.0 mi South 3.5 mph - N/A   Clear
8:53 AM 50.0 °F - 46.0 °F 86% 29.85 in 10.0 mi South 5.8 mph - N/A   Clear
9:53 AM 55.0 °F - 46.9 °F 74% 29.84 in 10.0 mi South 9.2 mph - N/A   Clear
10:53 AM 60.1 °F - 46.9 °F 62% 29.85 in 10.0 mi SSW 6.9 mph - N/A   Clear
11:53 AM 66.0 °F - 42.1 °F 42% 29.81 in 10.0 mi SSW 10.4 mph 18.4 mph N/A   Clear
12:53 PM 69.1 °F - 39.9 °F 35% 29.78 in 10.0 mi SSW 10.4 mph 20.7 mph N/A   Clear
1:53 PM 70.0 °F - 42.1 °F 36% 29.74 in 10.0 mi SSW 10.4 mph - N/A   Clear
2:53 PM 72.0 °F - 44.1 °F 37% 29.71 in 10.0 mi South 11.5 mph 20.7 mph N/A   Clear
3:53 PM 73.0 °F - 45.0 °F 37% 29.69 in 10.0 mi South 13.8 mph 19.6 mph N/A   Clear
4:53 PM 72.0 °F - 46.0 °F 40% 29.69 in 10.0 mi SW 6.9 mph - N/A   Clear
5:53 PM 66.9 °F - 46.0 °F 47% 29.68 in 10.0 mi SSW 6.9 mph - N/A   Clear
6:53 PM 63.0 °F - 48.0 °F 58% 29.68 in 10.0 mi South 4.6 mph - N/A   Clear
7:53 PM 63.0 °F - 48.9 °F 60% 29.69 in 10.0 mi SW 6.9 mph - N/A   Clear
8:53 PM 60.1 °F - 50.0 °F 69% 29.69 in 10.0 mi West 6.9 mph - N/A   Clear
9:53 PM 57.2 °F - 48.2 °F 72% 29.70 in 10.0 mi West 8.1 mph - N/A   Clear
10:53 PM 57.0 °F - 46.9 °F 69% 29.70 in 10.0 mi West 10.4 mph - N/A   Clear
11:53 PM 55.0 °F - 45.0 °F 69% 29.70 in 10.0 mi West 9.2 mph - N/A   Clear